EST,Max TemperatureF,Mean TemperatureF,Min TemperatureF,Max Dew PointF,MeanDew PointF,Min DewpointF,Max Humidity, Mean Humidity, Min Humidity, Max Sea Level PressureIn, Mean Sea Level PressureIn, Min Sea Level PressureIn, Max VisibilityMiles, Mean VisibilityMiles, Min VisibilityMiles, Max Wind SpeedMPH, Mean Wind SpeedMPH, Max Gust SpeedMPH,PrecipitationIn, CloudCover, Events, WindDirDegrees
2012-12-1,37,25,13,33,19,6,89,81,72,30.60,30.50,30.33,10,9,3,16,4,22,0.02,8,Snow,229
2012-12-2,47,42,37,45,39,33,100,88,76,30.31,30.05,29.90,10,9,4,17,8,23,0.14,6,Rain,166
2012-12-3,50,44,37,45,37,33,100,85,70,30.26,30.16,29.92,10,10,8,14,3,18,0.01,7,Rain,321
2012-12-4,54,41,28,49,41,27,100,89,77,30.22,30.01,29.82,10,8,2,17,5,28,0.19,3,Rain,163
2012-12-5,50,40,29,48,29,16,100,75,49,30.27,30.03,29.85,10,9,2,18,9,28,0.10,7,Rain,307
2012-12-6,32,27,22,21,17,14,88,71,53,30.42,30.32,30.16,10,10,10,15,4,21,0.00,2,,260
2012-12-7,39,31,22,28,23,19,92,70,48,30.14,30.05,30.01,10,10,10,13,4,16,0.00,3,,176
2012-12-8,44,38,32,37,34,28,92,87,82,30.01,29.90,29.76,10,10,8,13,2,23,T,8,Rain,187
2012-12-9,43,36,28,36,27,23,85,75,64,30.35,30.21,29.98,10,10,5,16,6,21,0.01,6,Snow,330
2012-12-10,46,38,29,43,34,27,100,85,70,30.06,29.75,29.47,10,8,2,18,7,26,0.26,8,Rain-Snow,169
2012-12-11,40,32,23,33,21,16,82,75,68,30.20,29.94,29.62,10,10,9,16,7,20,0.00,8,,359
2012-12-12,39,28,16,27,22,15,92,76,59,30.39,30.31,30.22,10,10,8,9,2,14,T,5,Snow,210
2012-12-13,39,31,22,28,25,22,92,76,59,30.45,30.37,30.22,10,10,9,16,4,18,0.00,2,,169
2012-12-14,44,35,26,29,26,23,85,67,49,30.26,30.14,30.06,10,10,10,20,6,24,0.00,5,,275
2012-12-15,30,22,14,20,11,8,80,69,57,30.45,30.38,30.29,10,10,10,20,9,23,0.00,2,,359
2012-12-16,36,25,14,28,22,10,85,80,74,30.30,30.11,29.96,10,8,1,24,9,31,0.01,7,Rain-Snow,164
2012-12-17,41,37,33,36,32,29,89,81,73,29.95,29.88,29.77,10,10,10,23,12,29,0.09,8,Rain,166
2012-12-18,40,38,36,37,36,33,100,90,79,29.74,29.55,29.47,10,8,2,10,3,13,0.44,8,Rain,357
2012-12-19,41,36,31,33,30,26,100,82,64,30.13,29.82,29.55,10,10,10,14,5,24,0.00,8,,322
2012-12-20,38,30,21,29,25,21,92,81,69,30.24,30.12,29.86,10,10,10,24,5,31,T,5,Rain,166
2012-12-21,48,41,33,43,35,30,100,85,70,29.84,29.32,28.91,10,8,2,29,9,40,0.68,7,Rain-Snow,164
2012-12-22,37,29,21,33,18,11,92,73,53,29.72,29.44,29.06,10,9,4,18,10,32,0.02,8,Snow,266
2012-12-23,30,25,20,25,17,8,92,75,57,29.88,29.78,29.71,10,8,2,17,5,25,T,7,Snow,303
2012-12-24,30,22,14,17,14,9,84,71,58,30.08,30.04,29.88,10,10,10,12,3,17,0.02,5,,298
2012-12-25,21,15,9,14,11,7,92,77,62,30.37,30.20,30.05,10,10,10,15,6,17,0.00,3,,345
2012-12-26,19,14,8,15,10,5,92,80,67,30.41,30.30,30.06,10,10,10,16,5,17,0.00,5,,344
2012-12-27,25,20,15,22,17,10,96,88,80,30.03,29.81,29.70,10,2,0,25,17,31,0.00,8,Fog-Snow,352
2012-12-28,31,21,11,22,19,13,96,80,63,30.07,29.99,29.87,10,9,2,15,4,21,0.00,5,Snow,335
2012-12-29,22,14,6,19,15,3,96,90,83,30.05,29.84,29.65,10,4,0,16,7,18,T,7,Fog-Snow,339
2012-12-30,19,16,12,13,8,4,88,70,51,30.11,29.87,29.66,10,8,2,17,5,24,T,5,Snow,313
2012-12-31,34,26,17,29,20,10,92,77,62,30.10,29.90,29.66,10,10,8,15,4,21,T,8,Snow,165